Regional Weather Roundup
Issued by NWS Midland/Odessa, TX

Skip options and go directly to product.
Home | Oldest Version | Previous Version | Current Version | All | Graphics & Text | Save Text | Print | Product List | Glossary On

Skip product version selection by date and time.   
945
ASUS44 KMAF 230010
RWRMAF
MIDLAND AREA WEATHER ROUNDUP
NATIONAL WEATHER SERVICE MIDLAND TX
700 PM CDT MON SEP 22 2014

...IN SOUTHWEST TEXAS AND SOUTHEAST NEW MEXICO...

CITY           SKY/WX    TMP DP  RH WIND       PRES   REMARKS
ALPINE         CLOUDY    73  55  52 SE10      30.27S
ANDREWS        FAIR      76  61  60 SE5       30.19S
ARTESIA        NOT AVBL
BIG SPRING     PTCLDY    81  62  51 E7        30.18R
CARLSBAD       CLOUDY    71  50  47 S5        30.18S
DRYDEN           N/A     85  53  33 SE12      30.10S
FORT STOCKTON  CLOUDY    78  55  44 SE10      30.15R
GUAD PASS      CLOUDY    62  62 100 NE23        N/A  FOG
HOBBS          CLOUDY    70  66  88 E6        30.22S
MARFA          CLOUDY    72  55  56 E9        30.25S
MIDLAND AIRPK  NOT AVBL
MIDLAND INTL   MOCLDY    79  60  52 SE8       30.16S
ODESSA         MOCLDY    77  59  53 SE7       30.17S
PECOS          CLOUDY    77  61  56 E9        30.12S
PRESIDIO       MOCLDY    83  58  41 NE13      30.07S
SEMINOLE       CLOUDY    71  62  73 SW6       30.21S
SNYDER         MOCLDY    77  63  62 E9        30.17S
WINK           CLOUDY    78  61  55 E7        30.14S
$$
...OTHER STATIONS IN TEXAS...

CITY           SKY/WX    TMP DP  RH WIND       PRES   REMARKS
ABILENE        MOCLDY    84  61  45 E6        30.13R
AMARILLO       CLEAR     73  58  59 SE10      30.23S
AUSTIN         MOCLDY    85  69  58 NE13      30.04R
BROWNSVILLE    PTCLDY    85  74  69 NE12G20   29.97R
CORPUS CHRISTI MOCLDY    85  68  56 E16       29.99S
DALLAS FTW     PTCLDY    83  46  27 NE9       30.10S
DEL RIO        PTCLDY    86  61  42 SE5       30.03S
EL PASO        CLOUDY    72  65  78 SE8       30.16S
HOUSTON INT    PTCLDY    85  69  58 NE12      30.02R
LUBBOCK        MOCLDY    73  62  68 SE9       30.21S
SAN ANGELO     CLEAR     84  63  49 NE10      30.11S
SAN ANTONIO    PTCLDY    90  62  39 NE9       30.04R
WACO           CLEAR     85  58  39 NE9       30.06S
WICHITA FALLS  NOT AVBL
$$
...OTHER LOCATIONS IN NEW MEXICO...

CITY           SKY/WX    TMP DP  RH WIND       PRES   REMARKS
ALAMAGORDO     NOT AVBL
ALBUQUERQUE    TSTM      75  56  51 NW12      30.18S
CANNON AFB     MOCLDY    69  61  76 SE7       30.25S
CLOVIS           N/A     70  61  73 S10       30.27R
HOLLOMAN AFB   NOT AVBL
ROSWELL        CLOUDY    70  67  90 E3        30.20F FOG
RUIDOSO        CLOUDY    57  57 100 SE9       30.37S
SANTA FE       MOSUNNY   72  56  57 SE20      30.25F
TRUTH OR CONSE MOSUNNY   73  62  68 S8        30.18S
TUCUMCARI      LGT RAIN  67  63  87 SW12      30.23R
$$

USA.gov is the U.S. government's official web portal to all federal, state and local government web resources and services.